Location: Sungai Bunut
(2.6333°N, 113.7333°E)
Time: 15:02:52
(UTC+00:00)

Altair - Pass Details

Date: 07 December 2023
Orbit: 1501 x 1682 km, 47.2° (Epoch: 24 February)

Event Time Altitude Azimuth Distance (km) Brightness Sun altitude
Rises 06:48:08 0° 346° (NNW) 4,629 9.9 45.2°
Reaches altitude 10° 06:52:25 10° 4° (N) 3,641 9.3 44.3°
Maximum altitude 06:58:23 19° 45° (NE) 3,001 8.8 43.1°
Drops below altitude 10° 07:04:22 10° 87° (E) 3,665 9.2 41.9°
Sets 07:08:38 0° 104° (ESE) 4,670 9.7 41.0°
